STARLINK-36049, 66805

Orbit data source: Space-Track

STARLINK-36049, 66805 is a payload satellite owned by SpaceX/Seattle (US) in LEO that was launched on Mon, 01 Dec 2025 UTC via an FALCON 9 launch vehicle from the Air Force Eastern Test Range (AFETR). Payload-class satellites include a variety of spacecraft equipped with specific instruments for various scientific and technological missions. These include communications satellites like Starlink; space stations such as the ISS; scientific satellites like the Hubble; Earth observation satellites from companies like Planet Labs, Umbra, and HawkEye 360; GPS; miniature CubeSats for education and research; and military/defense satellites.

Loading next visibility...
Identifier
66805, 2025-278Q
Orbit
LEO
Country
Flag of USUS
Related business
Manufacturer
SpaceX/Seattle
Mission
Operational Commercial Communications
Bus & Motor
STARLINK V2MO, Unknown motor
Mass
575 kg wet, ~530 kg dry
Launch date (UTC)
2025-12-01 (7 months ago)
Launch vehicle
FALCON 9
Launch site
Air Force Eastern Test Range (AFETR)
Object type
Payload
Rocket body
Debris
Shape & HBR
Box + 2 Pan, 17.7 m
Radar Cross Section
36.964 m², Large (>1 m²)

Expand to show TLE details & history
Last TLE update: 1 day ago

TLE from 1 day ago
0 STARLINK-36049
1 66805U 25278Q   26170.54823589  .00011147  00000-0  41390-3 0  9993
2 66805  42.9972 259.4183 0002085 286.1112  73.9510 15.27585565 30780
Epoch: 2026-06-19T13:09Z
TLE epoch observation values (Epoch: 2026-06-19T13:09:27.580Z)
Latitude
-0.00003°
Longitude
154.27771°
Altitude
482.412 km
Speed
7.626 km/s
True Right ascension
17h 17m 40s
True Declination
0° 00' 00"
Sunlit
Object was in full shadow at epoch
Visualization orbit readout
Latitude
Unknown
Longitude
Unknown
Altitude
Unknown
Speed
Unknown
Apparent Right ascension
Unknown
Apparent Declination
Unknown
Sunlit
N/A
Visualization observer readout
Local Sidereal Time
07:18:28
Azimuth
Unknown
Elevation
Unknown
Doppler factor
Unknown
Orbital elements
Apogee altitude
486.409 km
Perigee altitude
483.547 km
Semi-major axis
6,863.115 km
Eccentricity
0.00021
Inclination
42.9972°
RAAN
259.4183°
Arg. of periapsis
286.1112°
True anomaly
73.97396°
Mean anomaly
73.951°
Eccentric anomaly
73.96248°
Mean motion
3.81734 °/min
Orbital period
94.31 mins
BSTAR
0.0004139
Loading maneuver chart data...
Computing Atmospheric mass density...
Loading historical data...
Loading historical data...
Loading historical data...
Loading historical data...
Loading historical data...
Loading historical data...
Loading historical data...

Documentation

Showing up to 5 results
|